TIME,DELAY(SENSOR),PRES,T(CTD),SAL,OXYGEN,RAWTEMP,T(OPTODE),TCPHASE,TURBIDITY,TURBIDITY_GAIN,FLUOR,BETA,CDOM,ED411.5,ED443.8,ED489.6,PAR,COMP,TILT,TILTY(TILT),CHECK
1340705001,6466,207.5000000000000000,5.9628000259399410,34.8596000671386700,323.5020141601562500,730.6660766601562000,5.9562911987304690,34.4346313476562500,16,3,50,106,64,2147240246,2147553773,2147568754,2147363660,2869,0,-12,15919
1340705063,6504,203.9400024414062500,6.0237002372741700,34.8596992492675800,322.5816955566406000,729.4962768554688000,5.9967079162597660,34.4458198547363300,16,3,49,109,64,2147241782,2147558317,2147569974,2147356753,2287,0,-12,44995
1340705125,6504,200.4400024414062500,6.0353999137878420,34.8587989807128900,322.1986999511719000,729.2239990234375000,6.0061130523681640,34.4545402526855500,16,3,49,109,64,2147240593,2147556063,2147571249,2147360137,1639,0,-11,59842
1340705187,6468,196.9499969482422000,6.0420999526977540,34.8571014404296900,322.3171081542969000,728.9323120117188000,6.0161881446838380,34.4446601867675800,16,3,48,108,65,2147238810,2147555674,2147571254,2147362015,904,0,-12,25571
1340705249,6468,193.4799957275390600,6.0406999588012695,34.8535003662109400,322.6491088867187500,728.9459228515625000,6.0157198905944820,34.4328498840332000,16,3,49,106,65,2147240388,2147556287,2147572337,2147361540,55,0,-12,37113
1340705311,6504,189.9400024414062500,6.0718002319335940,34.8525009155273440,323.0892944335937500,728.1298217773438000,6.0438981056213380,34.4010505676269500,16,3,48,108,65,2147240310,2147557261,2147572534,2147360109,2826,0,-10,28726
1340705373,6469,186.4400024414062500,6.0879998207092285,34.8516006469726560,323.4959106445312500,727.6021728515625000,6.0621109008789060,34.3761482238769500,28,3,50,105,64,2147240575,2147556822,2147575039,2147361426,2067,0,-12,48272
1340705438,6503,182.9100036621093800,6.0950999259948730,34.8507995605468750,324.1326904296875000,727.3601074218750000,6.0704689025878910,34.3483505249023440,16,3,49,108,64,2147240396,2147556653,2147572584,2147362239,1367,0,-12,59749
1340705499,6467,179.7100067138672000,6.1133999824523930,34.8470001220703100,325.0577087402344000,726.8148193359375000,6.0892848968505860,34.3039398193359400,16,3,50,105,64,2147239967,2147555263,2147569750,2147363126,728,0,-12,2820
1340705560,6468,176.5700073242187500,6.1231999397277830,34.8447990417480500,326.1654968261719000,726.5739746093750000,6.0975928306579590,34.2593193054199200,16,3,49,109,64,2147240863,2147556900,2147570376,2147358902,3333,0,-12,48826
1340705623,6504,173.4299926757812500,6.1286997795104980,34.8443984985351560,327.1218872070312500,726.3588256835938000,6.1050190925598145,34.2204895019531250,16,3,48,112,64,2147240515,2147557050,2147575145,2147359683,2630,0,-12,59746
1340705684,6504,170.5099945068359400,6.1483001708984375,34.8422012329101560,328.0197143554687500,725.8535156250000000,6.1224498748779300,34.1785087585449200,163,3,50,109,64,2147239725,2147555963,2147575423,2147360566,1962,0,-12,55143
1340705747,6467,167.5599975585937500,6.1498999595642090,34.8423004150390600,328.6658020019531000,725.7647094726562000,6.1255130767822270,34.1538200378418000,16,3,50,109,64,2147237540,2147558353,2147575099,2147361133,1431,0,-12,14567
1340705808,6503,164.7200012207031200,6.1458001136779785,34.8401985168457000,328.7557067871094000,725.8494873046875000,6.1225872039794920,34.1520996093750000,16,3,50,108,64,2147236031,2147557828,2147577773,2147360671,1018,0,-12,42689
1340705871,6467,161.8699951171875000,6.1553001403808590,34.8396987915039060,328.7164001464844000,725.5701904296875000,6.1322212219238280,34.1482200622558600,16,3,50,110,64,2147239391,2147555491,2147579236,2147359944,262,0,-12,19207
1340705932,6503,159.1600036621093800,6.1665000915527340,34.8381996154785160,328.9093933105469000,725.3677978515625000,6.1392021179199220,34.1371803283691400,16,3,49,111,64,2147242390,2147556141,2147581311,2147366125,3005,0,-12,56870
1340705995,6504,156.4100036621093800,6.1620998382568360,34.8349990844726560,329.1955871582031000,725.3792724609375000,6.1388030052185060,34.1273193359375000,16,3,49,110,64,2147238568,2147555295,2147579971,2147363656,2363,0,-12,64725
1340706056,6504,153.8200073242187500,6.1840000152587890,34.8330993652343750,329.2102966308594000,724.8978271484375000,6.1554050445556640,34.1174888610839840,16,3,49,108,64,2147242833,2147557133,2147582824,2147365220,1747,0,-12,46873
1340706119,6503,151.2700042724609400,6.1821999549865720,34.8297004699707000,329.4529113769531000,724.7390136718750000,6.1608829498291020,34.1059303283691400,16,3,50,107,64,2147242788,2147559487,2147583218,2147360850,1239,0,-12,24011
1340706180,6466,148.7100067138672000,6.2034997940063480,34.8275985717773440,329.5766906738281000,724.2473144531250000,6.1778321266174320,34.0922317504882800,16,3,50,112,64,2147242847,2147561334,2147586838,2147363108,513,0,-12,32526
1340706243,6502,146.0399932861328000,6.2101998329162600,34.8265991210937500,329.2249145507812500,724.0393066406250000,6.1850008964538570,34.1007499694824200,16,3,50,108,64,2147240054,2147559867,2147588575,2147360809,3536,0,-12,18035
1340706304,6504,143.3899993896484400,6.2210998535156250,34.8226013183593750,329.1588134765625000,723.7332763671875000,6.1955471038818360,34.0974998474121100,16,3,50,107,64,2147237453,2147556401,2147592333,2147366426,2856,0,-12,30405
1340706367,6504,140.5399932861328000,6.2200999259948730,34.8213005065918000,329.7916870117187500,723.7172851562500000,6.1960978507995605,34.0745506286621100,16,3,50,107,64,2147242637,2147560392,2147596013,2147362911,2301,0,-12,44952
1340706428,6504,137.6999969482422000,6.2202000617980960,34.8200988769531250,330.4885864257812500,723.7050781250000000,6.1965198516845700,34.0491981506347660,16,3,50,105,64,2147240438,2147559944,2147599788,2147364209,1715,0,-12,53846
1340706491,6502,134.6499938964843800,6.2204999923706055,34.8194999694824200,330.6839904785156000,723.6845092773438000,6.1972308158874510,34.0422401428222660,16,3,50,108,64,2147241965,2147559533,2147603131,2147366349,1235,0,-12,17329
1340706552,6469,131.6799926757812500,6.2281999588012695,34.8146018981933600,331.0744018554687500,723.4766845703125000,6.2043910026550290,34.0242996215820300,16,3,50,108,64,2147239647,2147562747,2147608050,2147368658,804,0,-12,53346
1340706615,6466,128.6699981689453000,6.2297000885009770,34.8132019042968750,331.2168884277344000,723.4243774414062000,6.2061920166015625,34.0179290771484400,16,3,49,107,64,2147240365,2147560173,2147615597,2147365562,3324,0,-12,31098
1340706676,6465,125.8099975585937500,6.2298002243041990,34.8116989135742200,330.7384948730469000,723.4273071289062000,6.2060928344726560,34.0351600646972660,16,3,50,108,64,2147239254,2147559917,2147619798,2147366829,2900,0,-12,23173
1340706739,6502,122.9700012207031200,6.2357997894287110,34.8077011108398440,331.1534118652344000,723.2631835937500000,6.2117481231689450,34.0172309875488300,16,3,50,107,64,2147242093,2147562272,2147632081,2147365585,2528,0,-12,50580
1340706800,6504,120.2300033569336000,6.2358999252319340,34.8079986572265600,331.3699035644531000,723.2418823242188000,6.2124810218811035,34.0093193054199200,16,3,50,106,65,2147242280,2147563286,2147638294,2147374559,1986,0,-12,37284
1340706863,6503,117.3000030517578100,6.2378997802734375,34.8082008361816400,331.5111999511719000,723.1798706054688000,6.2146167755126950,34.0028381347656250,16,3,50,108,63,2147239062,2147564425,2147658902,2147373357,1554,0,-12,44784
1340706924,6503,114.4300003051757800,6.2385001182556150,34.8078002929687500,331.2171020507812500,723.1497802734375000,6.2156538963317870,34.0129890441894500,16,3,50,107,64,2147240680,2147565508,2147660040,2147372754,1142,0,-12,11726
1340706987,6468,111.4700012207031200,6.2561001777648930,34.8065986633300800,331.2843933105469000,722.7576293945312000,6.2291679382324220,34.0030097961425800,16,3,50,108,64,2147236347,2147570097,2147670564,2147374604,666,0,-12,9484
1340707048,6466,108.7200012207031200,6.2518000602722170,34.7980003356933600,330.1108093261719000,722.6953125000000000,6.2313117980957030,34.0435791015625000,16,3,50,106,64,2147238879,2147569078,2147680972,2147376022,14,0,-12,29094
1340707111,6503,105.9899978637695300,6.2680001258850100,34.7948989868164060,327.6730041503906000,722.3472290039062000,6.2433009147644040,34.1247901916503900,16,3,52,107,66,2147239985,2147574057,2147694052,2147377983,3426,0,-12,61128
1340707172,6468,103.5199966430664000,6.2775001525878910,34.7933006286621100,326.9227905273437500,722.0900268554688000,6.2521610260009770,34.1467895507812500,16,3,51,105,65,2147237622,2147571117,2147706390,2147379830,2924,0,-12,41347
1340707235,6466,101.0400009155273400,6.2843999862670900,34.7925987243652340,326.7015075683594000,721.8991088867188000,6.2587361335754395,34.1510391235351560,16,3,52,105,64,2147241023,2147578221,2147722541,2147383647,2385,0,-11,1944
1340707296,6504,98.6699981689453100,6.2898001670837400,34.7919998168945300,326.9342041015625000,721.7285156250000000,6.2646141052246090,34.1396408081054700,16,3,52,104,65,2147242431,2147578737,2147742203,2147387524,2024,0,-11,35227
1340707385,6504,95.1600036621093800,6.3053002357482910,34.7881011962890600,326.4450073242187500,721.2672729492188000,6.2804889678955080,34.1486015319824200,16,3,53,109,64,2147239684,2147583552,2147755446,2147391158,1062,0,-12,21756
1340707446,6467,92.0899963378906200,6.3196997642517090,34.7829017639160160,324.4548034667969000,720.9168090820312000,6.2925548553466800,34.2138595581054700,16,3,53,109,65,2147240410,2147585539,2147764922,2147394883,330,0,-12,11974
1340707509,6469,88.9199981689453100,6.3694000244140625,34.7752990722656250,321.3711853027344000,719.7100830078125000,6.3340849876403810,34.3038902282714840,16,3,56,114,64,2147241201,2147584191,2147764049,2147396868,3241,0,-12,37311
1340707570,6503,85.9899978637695300,6.3846001625061035,34.7756004333496100,320.3866882324219000,718.9470214843750000,6.3603382110595700,34.3259887695312500,16,3,57,115,66,2147242431,2147583917,2147776406,2147401101,2547,0,-12,13406
1340707633,6504,82.9599990844726600,6.4484000205993650,34.7699012756347660,322.2840881347656000,717.1480712890625000,6.4221878051757810,34.2225303649902340,16,3,60,118,65,2147242513,2147586595,2147775048,2147402207,1782,0,-12,42130
1340707694,6466,79.9700012207031200,6.4966998100280760,34.7675018310546900,325.2250061035156000,715.7354125976562000,6.4707298278808590,34.0884399414062500,16,3,66,120,65,2147240991,2147587052,2147782843,2147404840,1341,0,-12,17001
1340707757,6466,76.6699981689453100,6.5413999557495120,34.7659988403320300,327.4179992675781000,714.4904174804688000,6.5134868621826170,33.9862098693847660,16,3,67,119,66,2147242834,2147593851,2147812694,2147412529,617,0,-12,35329
1340707818,6465,73.1999969482421900,6.5594000816345215,34.7653007507324200,329.7184143066406000,713.8455200195312000,6.5356249809265140,33.8917388916015600,16,3,68,124,64,2147245375,2147602243,2147849686,2147426760,3286,0,-12,34693
1340707881,6468,69.4100036621093800,6.5936999320983890,34.7621002197265600,331.8541870117187500,712.9307250976562000,6.5670218467712400,33.7987403869628900,16,3,70,126,64,2147250362,2147614847,2147921380,2147446504,2412,0,-12,62506
1340707942,6503,65.6200027465820300,6.6525001525878910,34.7603988647460940,333.4418029785156000,711.1893920898438000,6.6267471313476560,33.7103385925293000,16,3,75,132,64,2147263501,2147640095,2148016031,2147473636,1753,0,-12,53542
1340708029,6468,60.8400001525878900,6.7270002365112305,34.7574996948242200,334.1841125488281000,709.1406250000000000,6.6969680786132810,33.6467399597168000,16,3,79,130,64,2147271181,2147673576,2148149526,2147520708,1285,0,-12,19465
1340708090,6468,58.5999984741210940,6.7575998306274410,34.7549018859863300,334.6789855957031000,708.5233764648438000,6.7181129455566410,33.6177101135253900,16,3,81,128,66,2147278294,2147689138,2148212914,2147540570,859,0,-12,29784
1340708153,6468,56.7000007629394500,6.7950000762939450,34.7538986206054700,334.0710144042969000,707.3129272460938000,6.7595648765563965,33.6166801452636700,16,3,83,133,64,2147282989,2147702929,2148269238,2147563497,616,0,-12,44941
1340708214,6468,55.1100006103515600,6.8575000762939450,34.7535018920898440,333.6442871093750000,705.5562744140625000,6.8196830749511720,33.5993881225585940,16,3,86,130,66,2147289855,2147716617,2148314033,2147584429,619,0,-12,13767
1340708301,6467,52.4500007629394500,6.9404001235961910,34.7517013549804700,335.5546875000000000,703.1984863281250000,6.9003119468688965,33.4894599914550800,15,3,98,144,66,2147302888,2147731377,2148387140,2147625028,3229,0,-12,687
1340708362,6505,49.7500000000000000,7.0725002288818360,34.7491989135742200,336.2922973632812500,699.5568237304688000,7.0246958732604980,33.3971290588378900,18,3,112,155,66,2147314907,2147750098,2148457206,2147662742,2298,0,-11,61865
1340708451,6469,45.3899993896484400,7.4124999046325680,34.7431983947753900,335.3728027343750000,688.9556884765625000,7.3857917785644530,33.2375907897949200,22,3,141,177,64,2147352547,2147806417,2148639936,2147767807,1085,0,-12,40956
1340708512,6469,42.0800018310546900,7.6596999168396000,34.7411994934082000,335.9147949218750000,681.8587036132812000,7.6267070770263670,33.0919990539550800,21,3,156,199,66,2147402052,2147873732,2148847551,2147888594,351,0,-12,35689
1340708575,6470,38.7799987792968750,8.3017997741699220,34.7237014770507800,334.1936950683594000,663.9727783203125000,8.2310237884521480,32.8374710083007800,29,3,245,271,66,2147465476,2147957860,2149115195,2148042285,3248,0,-12,10508
1340708636,6504,36.1500015258789060,8.4582996368408200,34.7322998046875000,336.8225097656250000,659.1082763671875000,8.3946933746337890,32.6628990173339840,38,3,377,309,65,2147542989,2148061325,2149422125,2148222408,1923,0,-12,41660
1340708699,6505,33.5400009155273440,8.8211002349853520,34.7321014404296900,338.3294982910156000,647.6459960937500000,8.7792186737060550,32.4160804748535160,74,3,1030,566,66,2147736072,2148336918,2150187624,2148587121,1817,0,-11,2125
1340708760,6505,31.3099994659423830,9.3731002807617190,34.7263984680175800,341.4072875976562500,633.4816894531250000,9.2522411346435550,32.0746192932128900,146,3,1400,594,66,2148116456,2148926353,2151631245,2149183011,1034,0,-10,19449
1340708850,6504,28.2900009155273440,9.9696998596191400,34.7210006713867200,347.2168884277344000,616.3237304687500000,9.8221721649169920,31.6013202667236330,102,3,1691,666,68,2149709284,2151475487,2156740196,2151138189,3087,0,-12,51586
1340708911,6470,25.7399997711181640,10.3205995559692380,34.7266998291015600,350.6387939453125000,602.0358276367188000,10.2943000793457030,31.2614994049072270,99,3,1081,635,68,2151971808,2154993211,2162721425,2153432547,2372,0,-11,60719
1340709001,6504,21.0900001525878900,11.5978002548217770,34.7160987854003900,346.5526123046875000,565.5543212890625000,11.4902095794677730,30.8238105773925780,60,3,318,410,68,2158700406,2164182847,2176401860,2159281586,1085,0,-12,30490
1340709062,6504,17.8600006103515620,11.9541997909545900,34.7252998352050800,343.7466125488281000,552.4796142578125000,11.9156599044799800,30.7154102325439450,62,3,256,355,68,2166246669,2173518235,2188757202,2165085362,3522,0,-12,11309
1340709125,6470,14.6199998855590820,12.2468996047973630,34.7249984741210940,341.3507995605469000,543.3325195312500000,12.2123804092407230,30.6557197570800780,64,3,226,372,66,2178205174,2187537604,2205968474,2173609558,2973,0,-11,12921
1340709186,6468,11.5200004577636720,12.9065999984741210,34.7280006408691400,335.7381896972656000,524.4395141601562000,12.8228998184204100,30.5589199066162100,77,3,223,412,64,2195970979,2207571798,2228696443,2185680982,2084,-1,-10,58893
1340709249,6470,9.1499996185302730,13.0284004211425780,34.7356986999511700,330.8074035644531000,518.3792114257812000,13.0180997848510740,30.6336402893066400,71,3,185,428,62,2213845659,2226889915,2248756648,2197688648,1517,1,-8,39172
1340709312,6469,7.2199997901916500,13.0283002853393550,34.7391014099121100,329.1303100585937500,517.8140869140625000,13.0362901687622070,30.6818809509277340,68,3,171,389,63,2233614719,2247598385,2269179588,2211373741,1502,-1,-26,18318
1340709378,6469,4.6300001144409180,13.0377998352050780,34.7389984130859400,328.3811950683594000,517.5015869140625000,13.0463399887084960,30.7023906707763670,79,3,131,368,62,2272552557,2287271738,2307102797,2241235789,1585,-3,7,25442
1340709437,6470,31.0000000000000000,0.0000000000000000,0.0000000000000000,328.3106079101562500,516.9805297851562000,13.0631103515625000,30.6972007751464840,67,3,113,403,62,2305384497,2319632516,2335993640,2273014925,1158,-5,-16,52647
1340709464,6469,0.6999999880790710,0.0000000000000000,0.0000000000000000,328.2652893066406000,517.1254272460938000,13.0584497451782230,30.7007808685302730,69,3,102,375,65,2335614427,2348762061,2359925512,2309584818,775,8,-3,55549
